Location: Unspecified
(0.0000°N, 0.0000°E)
Time: 11:20:27
(UTC+00:00)

TRS 6 - Pass Details

Date: 22 February 2019
Orbit: 3561 x 3726 km, 87.3° (Epoch: 13 October)

Event Time Altitude Azimuth Distance (km) Brightness Sun altitude
Rises 21:58:07 0° 217° (SW) 7,725 ? -54.9°
Reaches altitude 10° 22:06:32 10° 239° (WSW) 6,724 ? -56.9°
Maximum altitude 22:14:33 14° 265° (W) 6,393 ? -58.8°
Drops below altitude 10° 22:22:46 10° 293° (WNW) 6,774 ? -60.7°
Sets 22:31:50 0° 316° (NW) 7,824 ? -62.8°
